| time (UTC) | temp F | wind direction | speed knots | gust knots | rain 1hr in | rain 24hr in | rain mn in | humidity % | barometer mb |
| 20260906051542 | 66 | 84 | 13.9 | 25.2 | 0.00 | 0.00 | 0.00 | 63 | 1023.0 |
| 20260906050046 | 66 | 98 | 11.3 | 20.9 | 0.00 | 0.00 | 0.00 | 64 | 1023.0 |
| 20260906044546 | 66 | 92 | 11.3 | 20.9 | 0.00 | 0.00 | 0.00 | 64 | 1022.9 |
| 20260906043042 | 66 | 91 | 13.0 | 21.7 | 0.00 | 0.00 | 0.00 | 64 | 1022.7 |
| 20260906041550 | 66 | 113 | 12.2 | 21.7 | 0.00 | 0.00 | 0.00 | 64 | 1022.8 |
| 20260906040048 | 66 | 86 | 11.3 | 22.6 | 0.00 | 0.00 | 0.00 | 65 | 1022.6 |
| 20260906034554 | 66 | 123 | 13.0 | 24.3 | 0.00 | 0.00 | 0.00 | 65 | 1022.5 |
| 20260906033044 | 66 | 80 | 13.0 | 26.1 | 0.00 | 0.00 | 0.00 | 65 | 1022.4 |
| 20260906031609 | 66 | 133 | 11.3 | 21.7 | 0.00 | 0.00 | 0.00 | 65 | 1022.4 |
| 20260906030044 | 67 | 107 | 11.3 | 25.2 | 0.00 | 0.00 | 0.00 | 65 | 1022.4 |
| 20260906024549 | 67 | 134 | 13.0 | 24.3 | 0.00 | 0.00 | 0.00 | 65 | 1022.3 |
| 20260906023101 | 67 | 68 | 11.3 | 21.7 | 0.00 | 0.00 | 0.00 | 65 | 1022.3 |
| 20260906021544 | 67 | 65 | 11.3 | 18.2 | 0.00 | 0.00 | 0.00 | 66 | 1022.3 |
| 20260906020055 | 67 | 108 | 10.4 | 20.0 | 0.00 | 0.00 | 0.00 | 64 | 1022.2 |
| 20260906014542 | 68 | 119 | 9.6 | 20.0 | 0.00 | 0.00 | 0.00 | 62 | 1022.2 |
| 20260906013044 | 68 | 87 | 9.6 | 20.0 | 0.00 | 0.00 | 0.00 | 61 | 1022.2 |
| 20260906011544 | 68 | 88 | 12.2 | 20.0 | 0.00 | 0.00 | 0.00 | 61 | 1022.2 |
| 20260906010043 | 68 | 87 | 10.4 | 20.0 | 0.00 | 0.00 | 0.00 | 61 | 1022.2 |
| 20260906004550 | 68 | 87 | 11.3 | 21.7 | 0.00 | 0.00 | 0.00 | 61 | 1022.1 |
| 20260906003050 | 68 | 88 | 9.6 | 19.1 | 0.00 | 0.00 | 0.00 | 62 | 1022.1 |
| 20260906001546 | 69 | 153 | 11.3 | 19.1 | 0.00 | 0.00 | 0.00 | 61 | 1022.3 |
| 20260906000042 | 69 | 107 | 9.6 | 21.7 | 0.00 | 0.00 | 0.00 | 61 | 1022.2 |
| 20260905234542 | 69 | 113 | 9.6 | 20.9 | 0.00 | 0.00 | 0.00 | 61 | 1022.1 |
| 20260905233048 | 69 | 118 | 11.3 | 19.1 | 0.00 | 0.00 | 0.00 | 61 | 1022.1 |
| 20260905231542 | 69 | 135 | 8.7 | 16.5 | 0.00 | 0.00 | 0.00 | 62 | 1022.1 |
| 20260905230048 | 69 | 107 | 8.7 | 16.5 | 0.00 | 0.00 | 0.00 | 61 | 1022.2 |
| 20260905224541 | 69 | 142 | 9.6 | 21.7 | 0.00 | 0.00 | 0.00 | 62 | 1022.1 |
| 20260905223042 | 68 | 109 | 8.7 | 21.7 | 0.00 | 0.00 | 0.00 | 63 | 1022.1 |
| 20260905221558 | 69 | 71 | 8.7 | 17.4 | 0.00 | 0.00 | 0.00 | 63 | 1022.1 |
| 20260905220043 | 69 | 109 | 10.4 | 21.7 | 0.00 | 0.00 | 0.00 | 63 | 1022.1 |
| 20260905214546 | 69 | 116 | 8.7 | 16.5 | 0.00 | 0.00 | 0.00 | 64 | 1022.0 |
| 20260905213042 | 68 | 123 | 7.0 | 13.9 | 0.00 | 0.00 | 0.00 | 67 | 1022.0 |
| 20260905211543 | 69 | 101 | 6.1 | 13.0 | 0.00 | 0.00 | 0.00 | 67 | 1021.9 |
| 20260905210103 | 69 | 117 | 7.0 | 12.2 | 0.00 | 0.00 | 0.00 | 68 | 1021.8 |
| 20260905204544 | 69 | 134 | 5.2 | 12.2 | 0.00 | 0.00 | 0.00 | 67 | 1021.6 |
| 20260905203043 | 70 | 142 | 7.8 | 12.2 | 0.00 | 0.00 | 0.00 | 67 | 1021.4 |
| 20260905201542 | 70 | 148 | 5.2 | 9.6 | 0.00 | 0.00 | 0.00 | 67 | 1021.5 |
| 20260905200044 | 70 | 55 | 5.2 | 10.4 | 0.00 | 0.00 | 0.00 | 67 | 1021.4 |
| 20260905194548 | 71 | 124 | 6.1 | 11.3 | 0.00 | 0.00 | 0.00 | 66 | 1021.4 |
| 20260905193044 | 71 | 121 | 7.0 | 12.2 | 0.00 | 0.00 | 0.00 | 67 | 1021.2 |
| 20260905191543 | 71 | 138 | 7.8 | 12.2 | 0.00 | 0.00 | 0.00 | 68 | 1021.1 |
| 20260905190051 | 70 | 107 | 8.7 | 14.8 | 0.00 | 0.00 | 0.00 | 68 | 1020.9 |
| 20260905184544 | 71 | 112 | 9.6 | 14.8 | 0.00 | 0.00 | 0.00 | 67 | 1020.8 |
| 20260905183043 | 71 | 96 | 8.7 | 15.6 | 0.00 | 0.00 | 0.00 | 67 | 1020.7 |
| 20260905181549 | 70 | 106 | 10.4 | 17.4 | 0.00 | 0.00 | 0.00 | 68 | 1020.6 |
| 20260905180110 | 70 | 108 | 10.4 | 18.2 | 0.00 | 0.00 | 0.00 | 70 | 1020.4 |
| 20260905174545 | 71 | 102 | 9.6 | 17.4 | 0.00 | 0.00 | 0.00 | 69 | 1020.2 |
| 20260905173054 | 71 | 78 | 7.8 | 16.5 | 0.00 | 0.00 | 0.00 | 70 | 1020.1 |
| 20260905171553 | 72 | 88 | 8.7 | 16.5 | 0.00 | 0.00 | 0.00 | 67 | 1020.1 |
| 20260905170044 | 73 | 113 | 4.3 | 10.4 | 0.00 | 0.00 | 0.00 | 66 | 1020.1 |
| 20260905164544 | 75 | 101 | 4.3 | 11.3 | 0.00 | 0.00 | 0.00 | 60 | 1020.0 |
| 20260905163046 | 77 | 60 | 2.6 | 5.2 | 0.00 | 0.00 | 0.00 | 70 | 1019.9 |
| 20260905161545 | 79 | 308 | 0.0 | 1.7 | 0.00 | 0.00 | 0.00 | 66 | 1019.6 |
| 20260905160054 | 79 | 238 | 1.7 | 4.3 | 0.00 | 0.00 | 0.00 | 59 | 1019.5 |
| 20260905154551 | 79 | 235 | 2.6 | 7.0 | 0.00 | 0.00 | 0.00 | 66 | 1019.3 |
| 20260905153044 | 79 | 207 | 2.6 | 7.8 | 0.00 | 0.00 | 0.00 | 66 | 1019.3 |
| 20260905151542 | 79 | 209 | 2.6 | 7.0 | 0.00 | 0.00 | 0.00 | 65 | 1019.3 |
| 20260905150044 | 79 | 179 | 1.7 | 7.0 | 0.00 | 0.00 | 0.00 | 69 | 1019.2 |
| 20260905144546 | 79 | 198 | 3.5 | 7.8 | 0.00 | 0.00 | 0.00 | 67 | 1019.1 |
| 20260905143042 | 79 | 205 | 3.5 | 8.7 | 0.00 | 0.00 | 0.00 | 65 | 1019.1 |
| 20260905141546 | 80 | 228 | 4.3 | 8.7 | 0.00 | 0.00 | 0.00 | 63 | 1019.3 |
| 20260905140047 | 80 | 246 | 2.6 | 8.7 | 0.00 | 0.00 | 0.00 | 64 | 1019.5 |
| 20260905134549 | 80 | 269 | 3.5 | 7.0 | 0.00 | 0.00 | 0.00 | 65 | 1019.4 |
| 20260905133044 | 80 | 225 | 0.9 | 8.7 | 0.00 | 0.00 | 0.00 | 64 | 1019.3 |
| 20260905131544 | 81 | 263 | 2.6 | 7.8 | 0.00 | 0.00 | 0.00 | 61 | 1019.3 |
| 20260905130042 | 81 | 244 | 2.6 | 6.1 | 0.00 | 0.00 | 0.00 | 57 | 1019.5 |
| 20260905124544 | 81 | 239 | 1.7 | 8.7 | 0.00 | 0.00 | 0.00 | 56 | 1019.5 |
| 20260905123042 | 81 | 265 | 2.6 | 10.4 | 0.00 | 0.00 | 0.00 | 56 | 1019.5 |
| 20260905121546 | 82 | 271 | 5.2 | 8.7 | 0.00 | 0.00 | 0.00 | 54 | 1019.5 |
| 20260905120057 | 81 | 270 | 4.3 | 9.6 | 0.00 | 0.00 | 0.00 | 53 | 1019.5 |
| 20260905114557 | 82 | 214 | 4.3 | 9.6 | 0.00 | 0.00 | 0.00 | 52 | 1019.4 |
| 20260905113053 | 82 | 212 | 4.3 | 9.6 | 0.00 | 0.00 | 0.00 | 50 | 1019.5 |
| 20260905111623 | 80 | 217 | 3.5 | 9.6 | 0.00 | 0.00 | 0.00 | 52 | 1019.6 |
| 20260905110041 | 79 | 236 | 2.6 | 7.8 | 0.00 | 0.00 | 0.00 | 52 | 1019.5 |
| 20260905104547 | 79 | 227 | 3.5 | 9.6 | 0.00 | 0.00 | 0.00 | 52 | 1019.6 |
| 20260905103045 | 79 | 177 | 3.5 | 8.7 | 0.00 | 0.00 | 0.00 | 50 | 1019.5 |
| 20260905101544 | 79 | 199 | 6.1 | 10.4 | 0.00 | 0.00 | 0.00 | 50 | 1019.6 |
| 20260905100041 | 78 | 163 | 2.6 | 7.0 | 0.00 | 0.00 | 0.00 | 50 | 1019.7 |
| 20260905094549 | 79 | 165 | 3.5 | 7.0 | 0.00 | 0.00 | 0.00 | 46 | 1019.8 |
| 20260905093052 | 79 | 167 | 0.9 | 2.6 | 0.00 | 0.00 | 0.00 | 44 | 1019.7 |
| 20260905091542 | 78 | 138 | 1.7 | 5.2 | 0.00 | 0.00 | 0.00 | 44 | 1019.8 |
| 20260905090046 | 78 | 306 | 1.7 | 4.3 | 0.00 | 0.00 | 0.00 | 43 | 1019.7 |
| 20260905084543 | 77 | 42 | 1.7 | 3.5 | 0.00 | 0.00 | 0.00 | 46 | 1019.6 |
| 20260905083043 | 76 | 54 | 2.6 | 7.0 | 0.00 | 0.00 | 0.00 | 45 | 1019.3 |
| 20260905081542 | 76 | 76 | 2.6 | 6.1 | 0.00 | 0.00 | 0.00 | 49 | 1019.2 |
| 20260905080047 | 76 | 85 | 1.7 | 4.3 | 0.00 | 0.00 | 0.00 | 49 | 1018.9 |
| 20260905074543 | 76 | 106 | 1.7 | 3.5 | 0.00 | 0.00 | 0.00 | 47 | 1018.8 |
| 20260905073043 | 76 | 169 | 2.6 | 7.0 | 0.00 | 0.00 | 0.00 | 42 | 1018.7 |
| 20260905071545 | 75 | 180 | 2.6 | 7.0 | 0.00 | 0.00 | 0.00 | 43 | 1018.6 |
| 20260905070051 | 74 | 190 | 2.6 | 7.8 | 0.00 | 0.00 | 0.00 | 43 | 1018.7 |
| 20260905064558 | 73 | 182 | 1.7 | 6.1 | 0.00 | 0.00 | 0.00 | 43 | 1018.4 |
| 20260905063043 | 73 | 196 | 2.6 | 6.1 | 0.00 | 0.00 | 0.00 | 43 | 1018.3 |
| 20260905061541 | 73 | 0 | 2.6 | 6.1 | 0.00 | 0.00 | 0.00 | 42 | 1018.4 |
| 20260905060043 | 73 | 207 | 2.6 | 5.2 | 0.00 | 0.00 | 0.00 | 41 | 1018.7 |
| 20260905054550 | 72 | 209 | 4.3 | 5.2 | 0.00 | 0.00 | 0.00 | 40 | 1018.6 |
| 20260905053045 | 72 | 219 | 3.5 | 4.3 | 0.00 | 0.00 | 0.00 | 39 | 1018.8 |